STARLINK-5737 (55570 NORAD) Tracking and Keplerian Element Data

This shows tracking and keplerian element data for the satellite.

Feedback or suggestion? Click here.




ElementValue
Catalog55570
NameSTARLINK-5737
Epoch Orbit653
Epoch Day85.25001157
Epoch Year2023
RAAN110.4885
Inclination42.9985
Eccentricity0.0001658
Argument of Perigee269.5938
Mean Anonmoly248.3029
Mean Motion15.04603992
Decay Rate-0.00180588
L11 55570U 23020B 23085.25001157 -.00180588 00000+0 -12963-1 0 9991
L22 55570 42.9985 110.4885 0001658 269.5938 248.3029 15.04603992 6531



Live tracking and technical data element details for STARLINK-5737 (NORAD 55570). STARLINK-5737 can be tracked NOW for your location showing map with azimuth and elevation plus other details from your city location.







IsCatalogInMostPopularTable: catalog: 55570, numindb: -1

Insert: records affected: 1


GetName: 55570 STARLINK-5737

Hit Count: inserted at: Tue, 28 Mar 2023 03:19:28 GMT